User: anonymous   Login
Location: Unspecified
(0.0000°N, 0.0000°E)
Time: 23:21:55
(UTC+00:00)
Language:

MSX - Orbit

View from above orbital plane
View from above orbital plane
View from above satellite
View from above satellite

Ground track
Ground track

The orbit data is extracted from the following two-line orbital elements,

1 23851U 96024A   17346.24181374 0.00000160  00000-0  11271-3 0    06
2 23851  98.6728 342.2418 0006004 197.0376 162.9623 13.98062809    03
Epoch (UTC): 12 December 2017 05:48:12
Eccentricity: 0.0006004
inclination: 98.6728°
perigee height: 896 km
apogee height: 905 km
right ascension of ascending node: 342.2418°
argument of perigee: 197.0376°
revolutions per day: 13.98062809
mean anomaly at epoch: 162.9623°
orbit number at epoch: 0

The dashed part of the orbit path shows where the satellite is in the earth's shadow,  

DLR